CZ-2C R/B (53131 NORAD) Tracking and Keplerian Element Data

This shows tracking and keplerian element data for the satellite.

Feedback or suggestion? Click here.




ElementValue
Catalog53131
NameCZ-2C R/B
Epoch Orbit444
Epoch Day225.8607785
Epoch Year2022
RAAN233.794
Inclination97.3584
Eccentricity0.0046748
Argument of Perigee267.8175
Mean Anonmoly91.7716
Mean Motion15.36119702
Decay Rate6.628E-05
L11 53131U 22082D 22225.86077850 .00006628 00000+0 18408-3 0 9996
L22 53131 97.3584 233.7940 0046748 267.8175 91.7716 15.36119702 4442

Live tracking and technical data element details for CZ-2C R/B (NORAD 53131). CZ-2C R/B can be tracked NOW for your location showing map with azimuth and elevation plus other details from your city location.

Track the satellite on the map from your city or location and see movement details for azimuth, elevation, latitude, longitude, range, height, and movement on the map or in text.







IsCatalogInMostPopularTable: catalog: 53131, numindb: 8
Update: records affected: 1



GetName: 53131 CZ-2C R/B

Hit Count: updated at: Wed, 28 Sep 2022 23:27:29 GMT